Dewpoint
32 32 35 35 38 40 39 40 41 42 40 39 39 40 40 40 40 40 41 40 41 39 38 40 43 43 41 42 44 46 47 49
31 35 37 38 39 39 38 40 40 38 37 36 36 37 38 38 38 38 39 38 39 38 38 40 40 41 42 43 44 44 44 47
31 33 37 39 39 39 38 37 38 37 35 35 36 37 37 37 35 35 36 36 37 36 37 37 38 39 40 41 44 44 44 45
30 31 36 38 38 38 36 36 36 37 37 35 35 35 35 33 33 32 33 34 36 36 36 36 36 37 38 39 41 42 43 45
30 31 34 36 37 39 37 36 35 35 37 35 35 32 32 32 32 31 32 33 33 34 36 35 35 36 37 39 41 42 44 43
30 31 32 33 36 37 38 36 34 35 36 35 34 33 33 32 32 31 31 32 33 33 34 33 34 35 36 37 38 40 43 44
30 31 32 33 35 37 37 34 31 34 35 35 34 33 32 31 31 31 31 31 32 33 32 32 33 34 35 36 37 39 40 43
29 29 29 31 33 34 33 28 28 32 34 33 33 32 32 30 31 31 30 31 31 31 32 31 32 32 33 35 36 37 38 42
29 28 28 28 30 32 32 27 28 30 32 31 31 31 31 30 29 30 31 32 32 31 31 31 31 31 32 33 33 34 35 37
30 28 29 31 31 32 32 30 30 30 30 29 29 30 28 28 28 28 29 30 29 30 30 30 30 30 31 30 31 31 32 34
32 30 30 29 33 32 32 29 30 30 30 28 27 29 28 28 27 26 27 28 28 28 28 29 30 29 30 30 29 29 30 30
36 32 30 32 33 30 32 31 30 30 31 30 28 28 28 28 29 29 28 27 27 27 26 26 27 28 28 29 28 28 27 28
33 34 32 33 30 31 30 32 30 30 31 31 33 32 31 29 31 32 31 28 26 26 26 25 25 26 27 26 27 27 26 26
32 31 30 32 30 30 31 32 32 31 29 31 31 33 30 30 30 33 33 29 27 25 25 24 23 24 25 25 24 24 26 26
30 31 30 31 32 31 30 31 33 29 32 28 28 31 30 30 31 32 31 31 28 24 23 23 23 23 23 23 23 22 22 23
28 26 27 28 29 28 29 28 28 28 28 26 27 27 27 23 25 26 26 24 23 24 22 21 22 23 23 21 21 21 21 20
27 25 20 19 23 22 20 21 21 21 20 21 24 23 21 24 22 23 21 20 19 18 16 17 20 23 22 20 18 19 19 19
26 23 21 20 19 19 21 20 21 20 19 17 18 20 20 22 19 19 19 19 18 17 16 15 16 19 23 20 19 14 16 17
26 27 25 23 20 21 22 20 21 21 19 17 18 20 20 21 20 20 19 18 17 16 16 16 15 16 22 22 19 15 15 15
Lifted_Index
10 10 11 12 12 12 12 11 12 12 12 12 12 13 13 15 16 16 17 18 18 18 18 18 18 17 15 14 13 12 11 10
9 10 11 12 12 12 12 12 12 12 12 12 12 12 13 15 16 17 18 18 19 19 19 19 18 18 16 15 14 13 12 10
9 9 11 11 11 12 12 12 13 13 13 13 13 13 13 14 16 17 18 19 20 21 20 20 19 18 17 16 15 14 12 12
9 9 10 11 11 12 12 13 14 14 14 14 13 13 13 13 15 16 18 20 21 21 21 19 18 17 17 16 15 14 13 12
8 9 10 11 12 12 13 14 15 15 15 14 13 12 12 13 14 16 18 20 21 22 21 19 18 17 16 15 15 14 14 13
8 9 10 11 12 12 13 14 15 16 15 14 13 13 13 13 13 14 16 18 20 21 21 19 18 16 15 14 14 14 13 13
7 8 10 10 11 12 13 14 15 15 16 15 15 14 14 13 13 13 14 16 18 20 20 19 18 17 15 14 13 13 12 12
6 7 8 9 9 11 12 13 14 15 15 15 15 15 15 14 14 14 14 15 17 18 19 19 18 17 16 14 13 12 11 11
5 6 7 8 9 10 12 13 14 14 15 15 15 15 15 16 16 16 15 15 16 18 18 18 18 18 17 15 14 13 12 11
4 5 6 7 9 11 12 13 14 14 15 15 16 16 16 17 17 18 17 17 17 17 17 18 18 18 17 16 15 14 13 12
3 4 5 7 10 12 13 14 14 14 15 15 16 16 17 17 18 19 19 19 18 17 17 17 18 18 18 17 16 15 14 13
3 4 5 7 10 12 13 14 14 15 15 15 16 16 17 17 18 19 19 20 20 19 19 18 18 18 18 17 17 16 15 14
3 4 5 7 9 12 13 14 14 15 15 15 16 16 16 17 18 18 19 19 20 21 21 20 20 19 19 18 17 16 14 13
3 4 5 7 9 12 14 14 14 15 15 15 15 16 16 17 17 17 18 18 19 20 21 20 21 21 21 21 20 18 16 15
2 3 5 6 9 12 14 15 15 15 15 15 15 16 16 16 17 17 17 18 19 19 20 20 20 21 22 22 21 20 18 18
2 3 5 7 10 13 14 15 15 15 15 15 15 16 16 17 17 17 17 18 18 19 19 19 19 20 21 21 21 20 20 20
3 4 6 8 11 14 15 15 15 15 15 15 15 16 16 16 17 17 17 17 18 18 18 18 18 19 20 20 20 20 20 20
4 6 8 10 13 14 15 15 15 15 15 15 15 15 15 16 16 16 16 17 17 18 18 18 18 18 19 20 20 20 19 19
5 7 9 12 14 15 15 15 15 15 14 14 14 15 15 15 16 16 16 16 17 17 18 18 18 19 19 19 19 19 19 19